�N����,����,�g�[���i���ԁj���x,�g�[�����x,��g�[���i���ցj���x,����
 2004/07/01, 0:00,28.6,-9.9,26.8,23
 2004/07/01, 0:15,28.6,-9.9,26.8,23.1
 2004/07/01, 0:30,28.6,-9.9,26.9,23.3
 2004/07/01, 0:45,28.7,-9.9,27,23.4
 2004/07/01, 1:00,28.7,-9.9,27.1,23.6
 2004/07/01, 1:15,28.8,-9.9,27.2,23.7
 2004/07/01, 1:30,28.7,-9.9,27.2,23.8
 2004/07/01, 1:45,28.7,-9.9,27.2,23.9
 2004/07/01, 2:00,28.7,-9.9,27.3,24
 2004/07/01, 2:15,28.6,-9.9,27.3,24.2
 2004/07/01, 2:30,28.6,-9.9,27.3,24.3
 2004/07/01, 2:45,28.6,-9.9,27.2,24.4
 2004/07/01, 3:00,28.5,-9.9,27.1,24.5
 2004/07/01, 3:15,28.4,-9.9,26.9,24.6
 2004/07/01, 3:30,28.2,-9.9,26.8,24.7
 2004/07/01, 3:45,28.1,-9.9,26.7,24.7
 2004/07/01, 4:00,28,-9.9,26.8,24.8
 2004/07/01, 4:15,28,-9.9,26.7,24.9
 2004/07/01, 4:30,28,-9.9,26.7,25
 2004/07/01, 4:45,28,-9.9,26.7,25.1
 2004/07/01, 5:00,27.9,-9.9,26.5,25.2
 2004/07/01, 5:15,27.8,-9.9,26.4,25.3
 2004/07/01, 5:30,27.8,-9.9,26.3,25.4
 2004/07/01, 5:45,27.8,-9.9,26.3,25.5
 2004/07/01, 6:00,27.8,-9.9,26.3,25.6
 2004/07/01, 6:15,27.8,-9.9,26.5,26.4
 2004/07/01, 6:30,28,-9.9,26.7,26.3
 2004/07/01, 6:45,28.3,-9.9,26.8,26.4
 2004/07/01, 7:00,28.5,-9.9,26.8,26.4
 2004/07/01, 7:15,28.5,-9.9,26.7,22.2
 2004/07/01, 7:30,28.5,-9.9,26.8,22.5
 2004/07/01, 7:45,28.7,-9.9,26.8,22.7
 2004/07/01, 8:00,28.8,-9.9,26.8,22.9
 2004/07/01, 8:15,29.1,-9.9,26.8,23
 2004/07/01, 8:30,28.6,-9.9,26.6,23.2
 2004/07/01, 8:45,28.8,-9.9,26.6,23.3
 2004/07/01, 9:00,28,-9.9,26.4,23.4
 2004/07/01, 9:15,28,-9.9,26.3,23.6
 2004/07/01, 9:30,27.6,-9.9,26.2,23.7
 2004/07/01, 9:45,28.4,-9.9,26.3,23.8
 2004/07/01,10:00,28.5,-9.9,26.4,23.9
 2004/07/01,10:15,29,-9.9,26.6,24
 2004/07/01,10:30,28.9,-9.9,26.7,24.1
 2004/07/01,10:45,29.4,-9.9,26.8,24.2
 2004/07/01,11:00,29.2,-9.9,27,24.3
 2004/07/01,11:15,30,-9.9,27.2,24.4
 2004/07/01,11:30,30.6,-9.9,27.3,24.5
 2004/07/01,11:45,30.9,-9.9,27.5,24.6
 2004/07/01,12:00,30.7,-9.9,27.7,24.7
 2004/07/01,12:15,30.9,-9.9,27.8,24.8
 2004/07/01,12:30,31.4,-9.9,27.9,24.8
 2004/07/01,12:45,30.8,-9.9,28.1,25
 2004/07/01,13:00,30.7,-9.9,28.2,25
 2004/07/01,13:15,30.3,-9.9,28.3,25.1
 2004/07/01,13:30,30.5,-9.9,28.4,25.3
 2004/07/01,13:45,30.6,-9.9,28.6,25.3
 2004/07/01,14:00,30.9,-9.9,28.7,25.5
 2004/07/01,14:15,30.7,-9.9,28.8,25.6
 2004/07/01,14:30,30.9,-9.9,28.9,25.6
 2004/07/01,14:45,30.9,-9.9,29.1,25.8
 2004/07/01,15:00,31,-9.9,29.2,25.8
 2004/07/01,15:15,30.9,-9.9,29.3,26
 2004/07/01,15:30,30.6,-9.9,29.3,26
 2004/07/01,15:45,30.8,-9.9,29.4,26.2
 2004/07/01,16:00,30.7,-9.9,29.4,26.2
 2004/07/01,16:15,30.4,-9.9,29.4,26.3
 2004/07/01,16:30,30.3,-9.9,29.3,26.4
 2004/07/01,16:45,30.1,-9.9,29.3,26.5
 2004/07/01,17:00,30,-9.9,29.2,26.6
 2004/07/01,17:15,29.8,-9.9,29.2,26.7
 2004/07/01,17:30,29.8,-9.9,29.1,26.8
 2004/07/01,17:45,29.6,-9.9,29,26.9
 2004/07/01,18:00,30,-9.9,29.1,27
 2004/07/01,18:15,30.3,-9.9,29.2,27.1
 2004/07/01,18:30,30.5,-9.9,29.3,27.1
 2004/07/01,18:45,30.6,-9.9,29.3,27.2
 2004/07/01,19:00,30.6,-9.9,29.3,27.3
 2004/07/01,19:15,30.7,-9.9,29.3,27.4
 2004/07/01,19:30,30.7,-9.9,29.3,27.5
 2004/07/01,19:45,30.6,-9.9,29.3,27.5
 2004/07/01,20:00,30.4,-9.9,29.2,27.6
 2004/07/01,20:15,30.4,-9.9,29.2,27.1
 2004/07/01,20:30,30.5,-9.9,29.2,24.9
 2004/07/01,20:45,30.3,-9.9,29.1,25.1
 2004/07/01,21:00,30,-9.9,29.1,24.2
 2004/07/01,21:15,29.9,-9.9,29,24.4
 2004/07/01,21:30,29.8,-9.9,28.9,24.5
 2004/07/01,21:45,29.7,-9.9,28.9,24.7
 2004/07/01,22:00,29.7,-9.9,28.9,24.8
 2004/07/01,22:15,29.7,-9.9,28.9,24.9
 2004/07/01,22:30,29.7,-9.9,28.9,25.1
 2004/07/01,22:45,29.6,-9.9,28.8,25.2
 2004/07/01,23:00,29.6,-9.9,28.7,25.3
 2004/07/01,23:15,29.5,-9.9,28.6,25.5
 2004/07/01,23:30,29.6,-9.9,28.4,25.6
 2004/07/01,23:45,29.6,-9.9,28.1,25.7
 2004/07/02, 0:00,29.4,-9.9,27.9,25.8
 2004/07/02, 0:15,29.3,-9.9,27.5,25.9
 2004/07/02, 0:30,29.2,-9.9,27.4,26
 2004/07/02, 0:45,29.1,-9.9,27.2,26.1
 2004/07/02, 1:00,29,-9.9,27,26.2
 2004/07/02, 1:15,28.9,-9.9,27.2,26.3
 2004/07/02, 1:30,28.9,-9.9,27.3,26.3
 2004/07/02, 1:45,28.9,-9.9,27.1,26.4
 2004/07/02, 2:00,28.8,-9.9,26.8,26.5
 2004/07/02, 2:15,28.6,-9.9,26.5,26.5
 2004/07/02, 2:30,28.5,-9.9,26.3,26.6
 2004/07/02, 2:45,28.4,-9.9,26.7,26.7
 2004/07/02, 3:00,28.4,-9.9,26.8,26.7
 2004/07/02, 3:15,28.4,-9.9,27,26.4
 2004/07/02, 3:30,28.3,-9.9,27.1,26.4
 2004/07/02, 3:45,28.3,-9.9,27.1,26.5
 2004/07/02, 4:00,28.2,-9.9,27.2,26.5
 2004/07/02, 4:15,28.2,-9.9,27,26.6
 2004/07/02, 4:30,28.1,-9.9,26.8,26.7
 2004/07/02, 4:45,28,-9.9,26.8,26.7
 2004/07/02, 5:00,28,-9.9,26.8,26.8
 2004/07/02, 5:15,27.9,-9.9,26.6,26.8
 2004/07/02, 5:30,27.8,-9.9,26.4,26.9
 2004/07/02, 5:45,27.8,-9.9,26.3,26.9
 2004/07/02, 6:00,27.8,-9.9,26.4,27
 2004/07/02, 6:15,27.8,-9.9,26.5,26.7
 2004/07/02, 6:30,27.9,-9.9,26.5,26.8
 2004/07/02, 6:45,28.2,-9.9,26.6,24.1
 2004/07/02, 7:00,28.3,-9.9,26.7,24.2
 2004/07/02, 7:15,27,-9.9,26.8,24.3
 2004/07/02, 7:30,26.9,-9.9,26.9,24.5
 2004/07/02, 7:45,26.9,-9.9,27.1,23.3
 2004/07/02, 8:00,26.8,-9.9,27.1,23.4
 2004/07/02, 8:15,27,-9.9,27.2,23.6
 2004/07/02, 8:30,26.9,-9.9,27.3,23.7
 2004/07/02, 8:45,28.1,-9.9,27.4,23.8
 2004/07/02, 9:00,28.1,-9.9,27.6,23.9
 2004/07/02, 9:15,28.7,-9.9,27.6,24.1
 2004/07/02, 9:30,28.7,-9.9,27.8,24.2
 2004/07/02, 9:45,29.4,-9.9,27.7,24.3
 2004/07/02,10:00,29.5,-9.9,27.8,24.4
 2004/07/02,10:15,29.1,-9.9,27.7,24.5
 2004/07/02,10:30,29,-9.9,27.7,24.6
 2004/07/02,10:45,29.8,-9.9,27.8,24.7
 2004/07/02,11:00,30.3,-9.9,28,24.7
 2004/07/02,11:15,29.9,-9.9,28.1,24.8
 2004/07/02,11:30,29.9,-9.9,28.2,24.9
 2004/07/02,11:45,30.3,-9.9,28.3,25
 2004/07/02,12:00,30.2,-9.9,28.5,25.1
 2004/07/02,12:15,30.1,-9.9,28.5,25.3
 2004/07/02,12:30,30.5,-9.9,28.6,25.3
 2004/07/02,12:45,31.2,-9.9,28.9,25.5
 2004/07/02,13:00,31.3,-9.9,29,25.6
 2004/07/02,13:15,31.3,-9.9,29.2,25.6
 2004/07/02,13:30,31.6,-9.9,29.3,25.8
 2004/07/02,13:45,31.5,-9.9,29.3,25.9
 2004/07/02,14:00,31.5,-9.9,29.5,26
 2004/07/02,14:15,31.6,-9.9,29.6,26
 2004/07/02,14:30,31.7,-9.9,29.6,26.1
 2004/07/02,14:45,31.5,-9.9,29.7,26.2
 2004/07/02,15:00,31.5,-9.9,29.8,26.3
 2004/07/02,15:15,31.5,-9.9,29.8,26.4
 2004/07/02,15:30,31.5,-9.9,30,26.5
 2004/07/02,15:45,31.5,-9.9,30,26.6
 2004/07/02,16:00,31.3,-9.9,30.1,26.7
 2004/07/02,16:15,31.3,-9.9,30.2,26.8
 2004/07/02,16:30,31.3,-9.9,30.2,26.9
 2004/07/02,16:45,31.3,-9.9,30.2,27
 2004/07/02,17:00,31.1,-9.9,30.1,27.1
 2004/07/02,17:15,31,-9.9,30.2,27.1
 2004/07/02,17:30,30.6,-9.9,30.2,27.2
 2004/07/02,17:45,30.3,-9.9,30.2,27.3
 2004/07/02,18:00,29.9,-9.9,30.1,27.4
 2004/07/02,18:15,29.7,-9.9,30,26.2
 2004/07/02,18:30,29.4,-9.9,30,25.4
 2004/07/02,18:45,29.5,-9.9,29.8,25.6
 2004/07/02,19:00,29.5,-9.9,29.6,25.7
 2004/07/02,19:15,29.6,-9.9,29.5,25.9
 2004/07/02,19:30,29.3,-9.9,29.3,26.1
 2004/07/02,19:45,29.4,-9.9,29.1,26.2
 2004/07/02,20:00,29.5,-9.9,29,26.3
 2004/07/02,20:15,29.5,-9.9,28.8,26.4
 2004/07/02,20:30,29.1,-9.9,28.6,26.5
 2004/07/02,20:45,29.2,-9.9,28.5,26.7
 2004/07/02,21:00,29.3,-9.9,28.4,26.8
 2004/07/02,21:15,29.1,-9.9,28.3,26.9
 2004/07/02,21:30,28.8,-9.9,28.2,26.2
 2004/07/02,21:45,28.8,-9.9,28.1,26.3
 2004/07/02,22:00,28.7,-9.9,28.2,26.4
 2004/07/02,22:15,28.8,-9.9,28.6,26.5
 2004/07/02,22:30,28.2,-9.9,28.8,26.6
 2004/07/02,22:45,27.8,-9.9,29,26.7
 2004/07/02,23:00,28.4,-9.9,29.2,24.2
 2004/07/02,23:15,28,-9.9,29.3,23.9
 2004/07/02,23:30,29,-9.9,29.3,23.5
 2004/07/02,23:45,29.9,-9.9,29.2,23.7
 2004/07/03, 0:00,29.9,-9.9,28.9,23.9
 2004/07/03, 0:15,30,-9.9,28.9,24.1
 2004/07/03, 0:30,29.8,-9.9,28.7,24.2
 2004/07/03, 0:45,29.7,-9.9,28.7,24.4
 2004/07/03, 1:00,29.4,-9.9,28.4,24.5
 2004/07/03, 1:15,29.3,-9.9,28.2,24.7
 2004/07/03, 1:30,29.3,-9.9,28.2,24.8
 2004/07/03, 1:45,29.1,-9.9,28.2,24.9
 2004/07/03, 2:00,27.6,-9.9,28.4,25
 2004/07/03, 2:15,26.9,-9.9,28.5,25.2
 2004/07/03, 2:30,27.6,-9.9,28.6,25.3
 2004/07/03, 2:45,27.2,-9.9,28.6,25.4
 2004/07/03, 3:00,27.8,-9.9,28.6,25.5
 2004/07/03, 3:15,27.5,-9.9,28.6,25.7
 2004/07/03, 3:30,26.7,-9.9,28.5,25.8
 2004/07/03, 3:45,26.4,-9.9,28.5,25.9
 2004/07/03, 4:00,26.9,-9.9,28.5,26
 2004/07/03, 4:15,27.7,-9.9,28.5,26.1
 2004/07/03, 4:30,28,-9.9,28.6,26.2
 2004/07/03, 4:45,28.2,-9.9,28.5,26.3
 2004/07/03, 5:00,28.6,-9.9,28.4,26.3
 2004/07/03, 5:15,27.4,-9.9,28.4,26.4
 2004/07/03, 5:30,26.8,-9.9,28.4,26.5
 2004/07/03, 5:45,26.1,-9.9,28.3,26.6
 2004/07/03, 6:00,27.2,-9.9,28.4,26.7
 2004/07/03, 6:15,27.7,-9.9,28.4,26.8
 2004/07/03, 6:30,28.4,-9.9,28.4,26.8
 2004/07/03, 6:45,26.4,-9.9,28.4,26.9
 2004/07/03, 7:00,25.9,-9.9,28.3,27.4
 2004/07/03, 7:15,25.8,-9.9,28.3,24.9
 2004/07/03, 7:30,26.1,-9.9,28.3,25.1
 2004/07/03, 7:45,26.7,-9.9,28.4,25.3
 2004/07/03, 8:00,28,-9.9,28.4,25.4
 2004/07/03, 8:15,28.7,-9.9,28.5,24.4
 2004/07/03, 8:30,28.8,-9.9,28.3,24.6
 2004/07/03, 8:45,29,-9.9,28.3,24.7
 2004/07/03, 9:00,29.2,-9.9,28.3,24.8
 2004/07/03, 9:15,28.5,-9.9,28.5,24
 2004/07/03, 9:30,29,-9.9,28.6,24.1
 2004/07/03, 9:45,29.6,-9.9,28.8,22.6
 2004/07/03,10:00,29.1,-9.9,29,22.8
 2004/07/03,10:15,29.4,-9.9,29.1,23
 2004/07/03,10:30,30,-9.9,29,23.2
 2004/07/03,10:45,29.7,-9.9,29.2,23.4
 2004/07/03,11:00,29.9,-9.9,29.3,23.6
 2004/07/03,11:15,29.6,-9.9,29.5,23.7
 2004/07/03,11:30,30.6,-9.9,29.4,23.9
 2004/07/03,11:45,31,-9.9,29.5,24.1
 2004/07/03,12:00,31.2,-9.9,29.5,24.3
 2004/07/03,12:15,32,-9.9,29.7,24.4
 2004/07/03,12:30,32.2,-9.9,30,24.5
 2004/07/03,12:45,31.9,-9.9,30,24.6
 2004/07/03,13:00,32,-9.9,30.1,24.8
 2004/07/03,13:15,32.7,-9.9,30.4,24.9
 2004/07/03,13:30,32.9,-9.9,30.7,25
 2004/07/03,13:45,32.9,-9.9,30.9,25.2
 2004/07/03,14:00,32.9,-9.9,30.9,25.3
 2004/07/03,14:15,32.9,-9.9,31.2,25.5
 2004/07/03,14:30,32.9,-9.9,31.2,25.5
 2004/07/03,14:45,32.1,-9.9,31.1,25.6
 2004/07/03,15:00,31.5,-9.9,31.1,25.8
 2004/07/03,15:15,31.4,-9.9,31.1,25.9
 2004/07/03,15:30,31.3,-9.9,31.2,26
 2004/07/03,15:45,31.2,-9.9,31.3,26.2
 2004/07/03,16:00,31,-9.9,31.4,25
 2004/07/03,16:15,30.8,-9.9,31.5,25.2
 2004/07/03,16:30,30.7,-9.9,31.6,25.3
 2004/07/03,16:45,30.6,-9.9,31.7,25.5
 2004/07/03,17:00,30.5,-9.9,31.9,25.7
 2004/07/03,17:15,30.5,-9.9,31.9,25.8
 2004/07/03,17:30,30.7,-9.9,31.9,26
 2004/07/03,17:45,31,-9.9,31.9,26.3
 2004/07/03,18:00,31.1,-9.9,31.9,26.5
 2004/07/03,18:15,31.2,-9.9,31.9,26.6
 2004/07/03,18:30,31.1,-9.9,31.9,26.7
 2004/07/03,18:45,31.1,-9.9,31.7,25.8
 2004/07/03,19:00,31.2,-9.9,31.7,25.9
 2004/07/03,19:15,31.3,-9.9,31.6,26.1
 2004/07/03,19:30,31.5,-9.9,31.5,26.2
 2004/07/03,19:45,31.4,-9.9,31.5,26.4
 2004/07/03,20:00,31.3,-9.9,31.4,26.5
 2004/07/03,20:15,31.4,-9.9,31.4,24.3
 2004/07/03,20:30,31.3,-9.9,31.4,24.5
 2004/07/03,20:45,31.1,-9.9,31.4,24.7
 2004/07/03,21:00,30.9,-9.9,31.3,24.8
 2004/07/03,21:15,30.9,-9.9,31.3,24.9
 2004/07/03,21:30,30.8,-9.9,31.3,25.3
 2004/07/03,21:45,30.7,-9.9,31.2,25.4
 2004/07/03,22:00,30.7,-9.9,31.1,23.8
 2004/07/03,22:15,30.8,-9.9,31.1,24
 2004/07/03,22:30,30.7,-9.9,31.1,24.2
 2004/07/03,22:45,30.7,-9.9,31.1,24.4
 2004/07/03,23:00,29.9,-9.9,30.5,23.9
 2004/07/03,23:15,29.9,-9.9,30,24.1
 2004/07/03,23:30,29.8,-9.9,29.8,24.3
 2004/07/03,23:45,29.7,-9.9,29.5,24.4
 2004/07/04, 0:00,29.7,-9.9,29.2,24.6
 2004/07/04, 0:15,29.8,-9.9,29.2,24.7
 2004/07/04, 0:30,29.7,-9.9,29,25.4
 2004/07/04, 0:45,29.5,-9.9,28.9,25.5
 2004/07/04, 1:00,29.1,-9.9,28.6,25.6
 2004/07/04, 1:15,28.9,-9.9,28.5,25.7
 2004/07/04, 1:30,28.5,-9.9,28.3,25.9
 2004/07/04, 1:45,28.6,-9.9,28.2,26
 2004/07/04, 2:00,28.5,-9.9,28,26.1
 2004/07/04, 2:15,28.3,-9.9,27.9,26.2
 2004/07/04, 2:30,28.1,-9.9,27.7,26.3
 2004/07/04, 2:45,28.2,-9.9,27.7,26.4
 2004/07/04, 3:00,28.2,-9.9,27.7,26.5
 2004/07/04, 3:15,28.5,-9.9,27.8,26.6
 2004/07/04, 3:30,28.1,-9.9,28,26.7
 2004/07/04, 3:45,28.5,-9.9,28.2,26.7
 2004/07/04, 4:00,28.7,-9.9,28.3,26.8
 2004/07/04, 4:15,28.8,-9.9,28.3,26.9
 2004/07/04, 4:30,28.9,-9.9,28.3,26.9
 2004/07/04, 4:45,28.7,-9.9,28.3,27
 2004/07/04, 5:00,28.8,-9.9,28.2,27.1
 2004/07/04, 5:15,28.8,-9.9,28.2,27.1
 2004/07/04, 5:30,28.9,-9.9,28.2,27.2
 2004/07/04, 5:45,28.9,-9.9,28.1,27.3
 2004/07/04, 6:00,28.8,-9.9,27.9,27.7
 2004/07/04, 6:15,28.9,-9.9,27.9,26.6
 2004/07/04, 6:30,29,-9.9,27.9,26.3
 2004/07/04, 6:45,29.1,-9.9,28,26.4
 2004/07/04, 7:00,29.3,-9.9,28.3,24.5
 2004/07/04, 7:15,29.4,-9.9,28.4,24.6
 2004/07/04, 7:30,29.6,-9.9,28.5,24.8
 2004/07/04, 7:45,29.9,-9.9,28.7,24.9
 2004/07/04, 8:00,30.3,-9.9,28.7,25.1
 2004/07/04, 8:15,30.5,-9.9,28.7,25.2
 2004/07/04, 8:30,31.1,-9.9,28.7,25.3
 2004/07/04, 8:45,31.5,-9.9,28.8,25.5
 2004/07/04, 9:00,32.1,-9.9,29,25.6
 2004/07/04, 9:15,32.4,-9.9,29.2,25.7
 2004/07/04, 9:30,32.4,-9.9,29.4,25.8
 2004/07/04, 9:45,32.4,-9.9,29.5,25.9
 2004/07/04,10:00,32.3,-9.9,29.6,26
 2004/07/04,10:15,32.2,-9.9,29.6,26.1
 2004/07/04,10:30,32.9,-9.9,29.7,26.5
 2004/07/04,10:45,33,-9.9,29.8,26.5
 2004/07/04,11:00,33.1,-9.9,30,26.5
 2004/07/04,11:15,33.4,-9.9,30.4,26.6
 2004/07/04,11:30,33.5,-9.9,30.4,26.7
 2004/07/04,11:45,33.7,-9.9,30.6,26.8
 2004/07/04,12:00,33.7,-9.9,30.9,26.9
 2004/07/04,12:15,34,-9.9,31,25.6
 2004/07/04,12:30,33.9,-9.9,31,25.8
 2004/07/04,12:45,34,-9.9,31.1,25.9
 2004/07/04,13:00,33.9,-9.9,31.2,26.1
 2004/07/04,13:15,33.5,-9.9,31.3,26.2
 2004/07/04,13:30,33.2,-9.9,31.4,26.4
 2004/07/04,13:45,33,-9.9,31.5,26.5
 2004/07/04,14:00,32.9,-9.9,31.6,24.3
 2004/07/04,14:15,33.2,-9.9,31.7,24.5
 2004/07/04,14:30,33.4,-9.9,31.8,24.7
 2004/07/04,14:45,33.6,-9.9,32,24.9
 2004/07/04,15:00,33.5,-9.9,32.1,25
 2004/07/04,15:15,33.4,-9.9,32.3,25.2
 2004/07/04,15:30,33.4,-9.9,32.4,25.4
 2004/07/04,15:45,33.5,-9.9,32.6,25.6
 2004/07/04,16:00,33.4,-9.9,32.6,25.6
 2004/07/04,16:15,32.9,-9.9,32.7,25
 2004/07/04,16:30,32.7,-9.9,32.7,25.2
 2004/07/04,16:45,32.6,-9.9,32.6,25.4
 2004/07/04,17:00,32.5,-9.9,32.6,25.6
 2004/07/04,17:15,32.3,-9.9,32.6,25.7
 2004/07/04,17:30,31.8,-9.9,32.5,24.4
 2004/07/04,17:45,31.7,-9.9,32.5,24.6
 2004/07/04,18:00,31.5,-9.9,32.4,24.1
 2004/07/04,18:15,31.3,-9.9,32.3,24.3
 2004/07/04,18:30,31.2,-9.9,32.2,24.5
 2004/07/04,18:45,31.1,-9.9,32.2,24.7
 2004/07/04,19:00,31,-9.9,32.3,24.8
 2004/07/04,19:15,31.1,-9.9,32.2,25
 2004/07/04,19:30,31.2,-9.9,32.2,25.2
 2004/07/04,19:45,31.1,-9.9,32.1,25.4
 2004/07/04,20:00,30.9,-9.9,32.1,25.6
 2004/07/04,20:15,30.9,-9.9,32.1,24.9
 2004/07/04,20:30,30.8,-9.9,32.1,25.1
 2004/07/04,20:45,30.7,-9.9,32,25.3
 2004/07/04,21:00,30.5,-9.9,32,25.4
 2004/07/04,21:15,30.4,-9.9,31.9,25.6
 2004/07/04,21:30,30.3,-9.9,31.9,25.7
 2004/07/04,21:45,30.2,-9.9,31.9,25.9
 2004/07/04,22:00,30.1,-9.9,31.8,26
 2004/07/04,22:15,30.1,-9.9,31.8,26.2
 2004/07/04,22:30,30,-9.9,31.8,26.3
 2004/07/04,22:45,30,-9.9,31.7,24.9
 2004/07/04,23:00,29.8,-9.9,31.7,23.4
 2004/07/04,23:15,30,-9.9,31.6,22.2
 2004/07/04,23:30,30.6,-9.9,31.6,22.6
 2004/07/04,23:45,31.1,-9.9,31.6,22.9
 2004/07/05, 0:00,31.4,-9.9,31.6,23.2
 2004/07/05, 0:15,31.6,-9.9,31.5,23.4
 2004/07/05, 0:30,31.7,-9.9,31.4,23.6
 2004/07/05, 0:45,31.8,-9.9,31.3,23.8
 2004/07/05, 1:00,31.8,-9.9,31.3,24
 2004/07/05, 1:15,31.8,-9.9,31.2,24.1
 2004/07/05, 1:30,31.8,-9.9,31.2,24.3
 2004/07/05, 1:45,31.9,-9.9,31.1,24.5
 2004/07/05, 2:00,31.9,-9.9,31.1,24.6
 2004/07/05, 2:15,31.8,-9.9,31.1,24.8
 2004/07/05, 2:30,31.8,-9.9,31,24.9
 2004/07/05, 2:45,31.8,-9.9,31,25.1
 2004/07/05, 3:00,31.8,-9.9,30.9,25.3
 2004/07/05, 3:15,31.8,-9.9,30.9,25.4
 2004/07/05, 3:30,31.8,-9.9,30.9,25.6
 2004/07/05, 3:45,31.7,-9.9,30.8,25.7
 2004/07/05, 4:00,31.7,-9.9,30.8,25.9
 2004/07/05, 4:15,31.6,-9.9,30.8,26
 2004/07/05, 4:30,31.6,-9.9,30.8,26.2
 2004/07/05, 4:45,31.5,-9.9,30.7,26.3
 2004/07/05, 5:00,31.5,-9.9,30.7,26.4
 2004/07/05, 5:15,31.1,-9.9,30.6,26.5
 2004/07/05, 5:30,31,-9.9,30.3,26.7
 2004/07/05, 5:45,30.9,-9.9,30.2,26.8
 2004/07/05, 6:00,30.4,-9.9,30.2,26.9
 2004/07/05, 6:15,30.7,-9.9,30.2,27
 2004/07/05, 6:30,30.7,-9.9,30.1,27.1
 2004/07/05, 6:45,30.7,-9.9,30.1,28
 2004/07/05, 7:00,30.8,-9.9,29.9,27.7
 2004/07/05, 7:15,30.7,-9.9,29.8,27.8
 2004/07/05, 7:30,31,-9.9,29.8,27.8
 2004/07/05, 7:45,30.9,-9.9,30.1,24.3
 2004/07/05, 8:00,30.6,-9.9,30.5,24.8
 2004/07/05, 8:15,31.1,-9.9,30.6,23.7
 2004/07/05, 8:30,31.4,-9.9,30.6,24
 2004/07/05, 8:45,31.3,-9.9,30.6,24.1
 2004/07/05, 9:00,31.5,-9.9,30.6,24.3
 2004/07/05, 9:15,32.2,-9.9,30.7,24.5
 2004/07/05, 9:30,31.8,-9.9,30.8,24.7
 2004/07/05, 9:45,31.8,-9.9,30.8,24.8
 2004/07/05,10:00,31.7,-9.9,30.8,25
 2004/07/05,10:15,31.4,-9.9,30.9,25.1
 2004/07/05,10:30,31.3,-9.9,30.9,25.3
 2004/07/05,10:45,31,-9.9,30.9,25.5
 2004/07/05,11:00,31,-9.9,30.9,25.6
 2004/07/05,11:15,31.1,-9.9,30.9,25.8
 2004/07/05,11:30,31.3,-9.9,30.9,25.9
 2004/07/05,11:45,31.4,-9.9,31,26.1
 2004/07/05,12:00,31.1,-9.9,31,26.2
 2004/07/05,12:15,31,-9.9,31,26.3
 2004/07/05,12:30,31,-9.9,31,26.5
 2004/07/05,12:45,31,-9.9,31,26.6
 2004/07/05,13:00,31.1,-9.9,31,26.7
 2004/07/05,13:15,31.1,-9.9,31.1,26.8
 2004/07/05,13:30,31.1,-9.9,31.1,26.9
 2004/07/05,13:45,31.3,-9.9,31.1,27
 2004/07/05,14:00,31.3,-9.9,31.2,27.1
 2004/07/05,14:15,31.4,-9.9,31.2,27.3
 2004/07/05,14:30,31.4,-9.9,31.3,27.4
 2004/07/05,14:45,31.5,-9.9,31.3,27.5
 2004/07/05,15:00,31.7,-9.9,31.4,27.6
 2004/07/05,15:15,31.7,-9.9,31.5,27.7
 2004/07/05,15:30,31.9,-9.9,31.5,27.8
 2004/07/05,15:45,31.9,-9.9,31.6,27.8
 2004/07/05,16:00,32,-9.9,31.6,28.6
 2004/07/05,16:15,32.1,-9.9,31.7,28.6
 2004/07/05,16:30,32.1,-9.9,31.7,28.7
 2004/07/05,16:45,32,-9.9,31.8,28.8
 2004/07/05,17:00,31.7,-9.9,31.7,28.8
 2004/07/05,17:15,30.4,-9.9,31.4,28.9
 2004/07/05,17:30,30.2,-9.9,31.3,29
 2004/07/05,17:45,30.4,-9.9,31.4,29
 2004/07/05,18:00,30.2,-9.9,31.4,29.1
 2004/07/05,18:15,30,-9.9,31.3,29.2
 2004/07/05,18:30,29.8,-9.9,31.2,29.2
 2004/07/05,18:45,30.2,-9.9,31.2,29.3
 2004/07/05,19:00,30.4,-9.9,31,29.4
 2004/07/05,19:15,30.5,-9.9,30.9,28
 2004/07/05,19:30,30,-9.9,30.6,28.1
 2004/07/05,19:45,29.6,-9.9,30.3,28.2
 2004/07/05,20:00,29.3,-9.9,30,28.3
 2004/07/05,20:15,29.2,-9.9,29.9,28.4
 2004/07/05,20:30,28.8,-9.9,29.6,28.5
 2004/07/05,20:45,28.3,-9.9,29.3,28.5
 2004/07/05,21:00,28,-9.9,29,28.6
 2004/07/05,21:15,27.7,-9.9,28.7,28.7
 2004/07/05,21:30,27.6,-9.9,28.6,28.7
 2004/07/05,21:45,27.3,-9.9,28.9,28.8
 2004/07/05,22:00,28.3,-9.9,29.1,28.9
 2004/07/05,22:15,28.6,-9.9,29.3,26.5
 2004/07/05,22:30,28.6,-9.9,29.3,26.7
 2004/07/05,22:45,28.5,-9.9,29.4,26.8
 2004/07/05,23:00,28.2,-9.9,29.3,27.1
 2004/07/05,23:15,28,-9.9,29,25.5
 2004/07/05,23:30,27.9,-9.9,28.8,25.6
 2004/07/05,23:45,26.9,-9.9,28.8,25.8
 2004/07/06, 0:00,26.5,-9.9,28.8,25.9
 2004/07/06, 0:15,26.9,-9.9,28.8,26.1
 2004/07/06, 0:30,27.8,-9.9,29,26.2
 2004/07/06, 0:45,28.3,-9.9,29.1,26.3
 2004/07/06, 1:00,28.3,-9.9,29.2,26.4
 2004/07/06, 1:15,28.5,-9.9,29.2,26.5
 2004/07/06, 1:30,27.5,-9.9,29.1,26.7
 2004/07/06, 1:45,26.9,-9.9,28.9,26.7
 2004/07/06, 2:00,27.2,-9.9,29,26.8
 2004/07/06, 2:15,28.1,-9.9,28.9,26.9
 2004/07/06, 2:30,27.2,-9.9,28.8,27
 2004/07/06, 2:45,27.9,-9.9,28.8,27.1
 2004/07/06, 3:00,28.2,-9.9,28.7,27.1
 2004/07/06, 3:15,27.9,-9.9,28.8,27.2
 2004/07/06, 3:30,27.1,-9.9,28.6,27.3
 2004/07/06, 3:45,27.5,-9.9,28.6,27.4
 2004/07/06, 4:00,27,-9.9,28.5,27.4
 2004/07/06, 4:15,25.8,-9.9,28.4,27.5
 2004/07/06, 4:30,26.6,-9.9,28.5,27.6
 2004/07/06, 4:45,26.5,-9.9,28.4,27.6
 2004/07/06, 5:00,27.5,-9.9,28.5,27.7
 2004/07/06, 5:15,27.4,-9.9,28.4,27.8
 2004/07/06, 5:30,27.7,-9.9,28.4,27.8
 2004/07/06, 5:45,27.7,-9.9,28.1,27.9
 2004/07/06, 6:00,26.1,-9.9,28.2,27.9
 2004/07/06, 6:15,25.5,-9.9,28,28.3
 2004/07/06, 6:30,26.4,-9.9,28.2,28.2
 2004/07/06, 6:45,25.7,-9.9,28.2,26.6
 2004/07/06, 7:00,26.2,-9.9,28.4,26.7
 2004/07/06, 7:15,26.6,-9.9,28.5,26.8
 2004/07/06, 7:30,26,-9.9,28.4,24.7
 2004/07/06, 7:45,25.3,-9.9,28.2,23.2
 2004/07/06, 8:00,26.1,-9.9,28.2,23.4
 2004/07/06, 8:15,26.8,-9.9,28.3,23.6
 2004/07/06, 8:30,27.3,-9.9,28.4,23.8
 2004/07/06, 8:45,27.7,-9.9,28.5,24
 2004/07/06, 9:00,27.6,-9.9,28.6,24.1
 2004/07/06, 9:15,27.5,-9.9,28.6,24.3
 2004/07/06, 9:30,28.1,-9.9,28.7,24.4
 2004/07/06, 9:45,28.4,-9.9,28.8,24.5
 2004/07/06,10:00,28.4,-9.9,28.9,24.6
 2004/07/06,10:15,28.7,-9.9,29,24.8
 2004/07/06,10:30,28.9,-9.9,29.2,24.9
 2004/07/06,10:45,29.7,-9.9,29.3,25
 2004/07/06,11:00,30.2,-9.9,29.5,25.1
 2004/07/06,11:15,30.9,-9.9,29.7,25.3
 2004/07/06,11:30,31.2,-9.9,29.9,25.4
 2004/07/06,11:45,31.3,-9.9,30.2,25.5
 2004/07/06,12:00,31.5,-9.9,30.4,25.6
 2004/07/06,12:15,31.8,-9.9,30.6,25.8
 2004/07/06,12:30,32.3,-9.9,30.7,25.9
 2004/07/06,12:45,32.4,-9.9,30.9,26
 2004/07/06,13:00,32.9,-9.9,31,26.1
 2004/07/06,13:15,33.3,-9.9,31.1,26.2
 2004/07/06,13:30,33.7,-9.9,31.2,26.3
 2004/07/06,13:45,34,-9.9,31.3,26.4
 2004/07/06,14:00,34,-9.9,31.6,26.5
 2004/07/06,14:15,33.8,-9.9,31.9,26.7
 2004/07/06,14:30,34,-9.9,32,26.8
 2004/07/06,14:45,34.1,-9.9,32,26.9
 2004/07/06,15:00,34.1,-9.9,32.1,27
 2004/07/06,15:15,33.8,-9.9,32.2,27.1
 2004/07/06,15:30,33.7,-9.9,32.3,27.2
 2004/07/06,15:45,33.3,-9.9,32.3,27.3
 2004/07/06,16:00,32.7,-9.9,32.2,27.4
 2004/07/06,16:15,32.4,-9.9,32.1,27.5
 2004/07/06,16:30,32.1,-9.9,32,27.6
 2004/07/06,16:45,32,-9.9,31.8,27.7
 2004/07/06,17:00,32.1,-9.9,31.7,27.8
 2004/07/06,17:15,31.7,-9.9,31.6,27.9
 2004/07/06,17:30,31.3,-9.9,31.4,28
 2004/07/06,17:45,31,-9.9,31.2,28.1
 2004/07/06,18:00,30.7,-9.9,30.9,28.2
 2004/07/06,18:15,30.9,-9.9,30.9,28.3
 2004/07/06,18:30,30.9,-9.9,31,28.3
 2004/07/06,18:45,30.4,-9.9,30.7,28.4
 2004/07/06,19:00,29.9,-9.9,30.4,28.5
 2004/07/06,19:15,29.6,-9.9,30,28.6
 2004/07/06,19:30,29.2,-9.9,29.9,28.7
 2004/07/06,19:45,29.1,-9.9,29.9,28.7
 2004/07/06,20:00,29.1,-9.9,29.7,27.4
 2004/07/06,20:15,29.2,-9.9,29.9,25.3
 2004/07/06,20:30,29.6,-9.9,30.2,24.7
 2004/07/06,20:45,29.4,-9.9,30.4,24.2
 2004/07/06,21:00,30,-9.9,30.5,24.4
 2004/07/06,21:15,30,-9.9,30.6,24.6
 2004/07/06,21:30,29.8,-9.9,30.7,24.8
 2004/07/06,21:45,29.7,-9.9,30.7,25
 2004/07/06,22:00,29.7,-9.9,30.8,25.1
 2004/07/06,22:15,29.5,-9.9,30.8,25.3
 2004/07/06,22:30,29.3,-9.9,30.8,25.5
 2004/07/06,22:45,29.3,-9.9,30.8,25.7
 2004/07/06,23:00,29.5,-9.9,30.8,26.2
 2004/07/06,23:15,29.7,-9.9,30.8,24.7
 2004/07/06,23:30,29.9,-9.9,30.6,23.9
 2004/07/06,23:45,30.6,-9.9,30.5,23.9
 2004/07/07, 0:00,30,-9.9,30.5,24.1
 2004/07/07, 0:15,29.5,-9.9,30.5,24.3
 2004/07/07, 0:30,29.5,-9.9,30.5,24.4
 2004/07/07, 0:45,30.3,-9.9,30.5,24.6
 2004/07/07, 1:00,29.8,-9.9,30.4,24.8
 2004/07/07, 1:15,29.6,-9.9,30.4,26.1
 2004/07/07, 1:30,30.2,-9.9,30.2,26.2
 2004/07/07, 1:45,30.3,-9.9,30.2,26.3
 2004/07/07, 2:00,30.5,-9.9,30.2,26.4
 2004/07/07, 2:15,29.9,-9.9,30.2,26.5
 2004/07/07, 2:30,30.1,-9.9,30.2,26.7
 2004/07/07, 2:45,30.2,-9.9,30.1,26.8
 2004/07/07, 3:00,30.2,-9.9,30.1,26.9
 2004/07/07, 3:15,29.6,-9.9,30,27
 2004/07/07, 3:30,29.6,-9.9,30,27.1
 2004/07/07, 3:45,29.7,-9.9,30,27.2
 2004/07/07, 4:00,29.9,-9.9,29.9,27.3
 2004/07/07, 4:15,29.9,-9.9,29.7,27.3
 2004/07/07, 4:30,29.8,-9.9,29.7,27.4
 2004/07/07, 4:45,28.3,-9.9,29.7,27.5
 2004/07/07, 5:00,27,-9.9,29.5,27.6
 2004/07/07, 5:15,28.4,-9.9,29.5,27.7
 2004/07/07, 5:30,29.1,-9.9,29.4,27.8
 2004/07/07, 5:45,28.1,-9.9,29.4,27.8
 2004/07/07, 6:00,28.8,-9.9,29.5,28.3
 2004/07/07, 6:15,29,-9.9,29.5,28.4
 2004/07/07, 6:30,28.2,-9.9,29.5,28.4
 2004/07/07, 6:45,27.9,-9.9,29.7,26.2
 2004/07/07, 7:00,27.1,-9.9,29.7,26.3
 2004/07/07, 7:15,26.8,-9.9,29.5,26.4
 2004/07/07, 7:30,26.8,-9.9,29.3,25.1
 2004/07/07, 7:45,27.1,-9.9,29.4,23.6
 2004/07/07, 8:00,27.6,-9.9,29.7,23.9
 2004/07/07, 8:15,28.6,-9.9,29.9,24.1
 2004/07/07, 8:30,29.7,-9.9,30.1,24.2
 2004/07/07, 8:45,29.7,-9.9,30,23.9
 2004/07/07, 9:00,30.3,-9.9,29.8,24.1
 2004/07/07, 9:15,31,-9.9,29.9,24.3
 2004/07/07, 9:30,30.8,-9.9,30,24.8
 2004/07/07, 9:45,31.2,-9.9,30.3,25
 2004/07/07,10:00,31.4,-9.9,30.3,25.1
 2004/07/07,10:15,31.4,-9.9,30.4,25.3
 2004/07/07,10:30,31.9,-9.9,30.5,25.4
 2004/07/07,10:45,32.2,-9.9,30.4,25.6
 2004/07/07,11:00,32.2,-9.9,30.4,25.7
 2004/07/07,11:15,32.5,-9.9,30.6,25.9